Location: Westerlo
(51.0830°N, 4.9170°E)
Time: 11:53:29
(UTC+02:00)

ISS - Pass Details

Date: 30 July 2019
Orbit: 410 x 421 km, 51.6° (Epoch: 24 August)

Event Time Altitude Azimuth Distance (km) Brightness Sun altitude
Rises 22:37:35 0° 285° (WNW) 2,376 1.2 -9.1°
Reaches altitude 10° 22:39:43 10° 280° (W) 1,508 0.0 -9.3°
Maximum altitude 22:43:00 50° 204° (SSW) 541 -3.4 -9.7°
Enters shadow 22:45:35 15° 131° (SE) 1,224 -2.1 -10.0°
